DM7LA-WX Weather Reports


Display with metric or nautical units.
time (UTC)temp
F
wind
direction
speed
MPH
gust
MPH
rain 1hr
in
rain 24hr
in
rain mn
in
humidity
%
barometer
mb
20260902085801 65 225 0.0 0.0 0.00 1.37 0.00 78 1013.4
20260902075801 62 225 0.0 0.0 0.00 1.37 0.00 80 1013.1
20260902065801 58 180 0.0 0.0 0.00 1.37 0.00 84 1013.1
20260902055801 57 247 0.0 0.0 0.00 1.37 0.00 86 1013.2
20260902045801 57 157 0.0 0.0 0.00 1.37 0.00 86 1013.1
20260902035801 57 135 0.0 0.0 0.00 1.37 0.00 87 1013.6
20260902025801 57 180 0.0 0.0 0.00 1.37 0.00 89 1013.7
20260902015802 57 202 0.0 0.0 0.00 1.37 0.00 88 1014.1
20260902005802 57 270 0.0 0.0 0.00 1.37 0.00 87 1014.1
20260901235802 58 225 0.0 0.0 0.00 1.37 0.33 88 1014.0
20260901225802 59 247 0.0 0.0 0.00 1.37 0.33 86 1014.4
20260901215802 59 270 0.0 0.0 0.00 1.37 0.33 87 1014.7
20260901205802 60 292 0.0 0.0 0.00 1.37 0.33 84 1014.5
20260901195801 62 270 0.0 0.0 0.00 1.37 0.33 76 1014.4
20260901185802 63 292 0.0 0.0 0.00 1.37 0.33 73 1014.2
20260901175802 64 270 0.0 0.0 0.00 1.37 0.33 72 1014.1
20260901165802 65 270 0.0 0.0 0.00 1.37 0.33 70 1013.8
20260901155802 66 247 0.0 0.0 0.00 1.37 0.33 70 1013.5
20260901145801 66 337 0.0 0.0 0.00 1.37 0.33 67 1013.4
20260901135801 66 292 0.0 0.0 0.00 1.37 0.33 67 1012.9
20260901125802 66 292 0.0 0.0 0.00 1.37 0.33 70 1012.8
20260901115802 64 292 0.0 0.0 0.00 1.37 0.33 76 1012.6
20260901105802 60 292 0.0 0.0 0.02 1.37 0.33 91 1012.3
20260901095802 60 202 0.0 0.0 0.10 1.34 0.30 91 1011.8